Kosmos-2485

operational
NORAD ID: 39155 Int'l Des: 2013-019 Owner: VVKO/IACG Country: RU Constellation: GLONASS
MEOCIRCULAR

About Kosmos-2485

Description loading...

Live Position

Loading 3D Globe...

Upcoming Passes

Altitude History

Altitude vs Time

uPlot chart will show altitude changes over time

Two-Line Element Set

1 39155U 13019A 25298.74989787 .00000026 00000-0 00000+0 0 9999
2 39155 65.2897 81.4803 0023366 226.8037 132.9937 2.13104458 97282
Epoch: Oct 25, 2025 • Age: 9 hours

Current Status

Altitude 19130.4 km
Velocity 3.95 km/s
Sub-Earth Point -53.13°S, 41.01°W
Launch Date Apr 26, 2013
Age 12.5 years
Type other

Technical Details

Classification Payload
Mass 1450.00 kg
Dry Mass 1200.00 kg
Total Mass 1450.00 kg
Length 4.00 m
Diameter 1.50 m
Span 7.80 m
Shape Cyl + Ant + 2 Pan
Manufacturer RESH
Bus Type Uragan
Phase Status In Orbit
Owner/State VVKO/IACG/RU

Large Constellations

Loading constellations...